User: anonymous   Login
Location: Unspecified
(0.0000°N, 0.0000°E)
Time: 09:21:14
(UTC+00:00)
Language:

YAOGAN 7 - Orbit

View from above orbital plane
View from above orbital plane
View from above satellite
View from above satellite

Ground track
Ground track

The orbit data is extracted from the following two-line orbital elements,

1 36110U 09069A   18018.69958690  .00000042  00000-0  14144-4 0  9999
2 36110  98.2337 186.0612 0025032 143.1080 217.1858 14.75099477436657
Epoch (UTC): 18 January 2018 16:47:24
Eccentricity: 0.0025032
inclination: 98.2337°
perigee height: 627 km
apogee height: 662 km
right ascension of ascending node: 186.0612°
argument of perigee: 143.1080°
revolutions per day: 14.75099477
mean anomaly at epoch: 217.1858°
orbit number at epoch: 43665

The dashed part of the orbit path shows where the satellite is in the earth's shadow,  

DLR